[[{"header":{"parameterUnit":"m.s-1","parameterCategory":1,"la1":30.2991,"la2":30.254,"lo1":-89.0895,"lo2":-89.0444,"dy":0.0017,"dx":0.0017,"nx":28,"ny":28,"refTime":"2025-09-12T21:00:00:Z","depth":0,"parameterNumber":2,"parameterNumberName":"U-component_of_WINDS"},"data":[0,0,0,0,0,0,0,0,0,0,0,0,0,0,0,0,0,0,0,0,0,0,0,0,0,0,0,0,0,0,0,0,0,0,0,0,0,0,0,0,0,0,0,0,0,0,0,0,0,0,0,0,0,0,0,0,0,0,-1.1157,-1.1156,0,-1.1067,-1.1066,-1.1065,-1.1027,-1.1027,-1.1027,-1.1027,-1.0933,-1.093,-1.0928,0,0,0,0,0,0,0,0,0,0,0,0,0,-1.1294,-1.1292,-1.1157,-1.1156,-1.1155,-1.1068,-1.1066,-1.1065,-1.1027,-1.1027,-1.1027,-1.1027,-1.0934,-1.0931,-1.0927,0,0,0,0,0,0,0,0,0,0,0,0,0,-1.1223,-1.1291,-1.1157,-1.1125,-1.1121,-1.1068,-1.1066,-1.1065,-1.1027,-1.1027,-1.1027,-1.1027,-1.0935,-1.0931,-1.0927,-1.0898,0,0,-1.0915,-1.0913,0,0,0,0,0,0,0,0,-1.1227,-1.1218,-1.1131,-1.1127,-1.1123,-1.1058,-1.108,-1.1009,-1.1027,-1.1062,-1.1027,-1.1027,-1.0974,-1.0967,-1.095,-1.0894,-1.0889,-1.0915,-1.0912,-1.091,-1.0909,0,0,0,0,0,0,0,-1.1232,-1.1221,-1.1121,-1.113,-1.1125,-1.1115,-1.1105,-1.1066,-1.1018,-1.1059,-1.1056,-1.1046,-1.0972,-1.0954,-1.0947,-1.0888,-1.0915,-1.0911,-1.0909,-1.0907,-1.0807,-1.0807,0,0,0,0,0,0,-1.1242,-1.1226,-1.1124,-1.1119,-1.1177,-1.1112,-1.1101,-1.1079,-1.1018,-1.1009,-1.1046,-1.1045,-1.096,-1.0952,-1.0944,-1.0908,-1.091,-1.0907,-1.0904,-1.0807,-1.0807,-1.0807,0,0,0,0,0,0,-1.1245,-1.1234,-1.1128,-1.1171,-1.1157,-1.111,-1.1085,-1.1077,-1.1058,-1.1009,-1.1,-1.1036,-1.096,-1.0949,-1.0911,-1.0904,-1.0905,-1.0901,-1.0808,-1.0807,-1.0807,-1.0834,0,0,0,0,0,0,-1.1249,-1.1235,-1.1223,-1.1171,-1.1155,-1.1096,-1.1084,-1.1075,-1.1052,-1.1049,-1.0997,-1.0988,-1.096,-1.0917,-1.0907,-1.0898,-1.0898,-1.0808,-1.0807,-1.0807,-1.0833,-1.0834,-1.0835,0,0,0,0,0,-1.1254,-1.1233,-1.1223,-1.1211,-1.1139,-1.1096,-1.1086,-1.1054,-1.1052,-1.104,-1.1008,-1.099,-1.0906,-1.0913,-1.0901,-1.0892,-1.0808,-1.0807,-1.0807,-1.0833,-1.0834,-1.0835,0,0,0,0,0,0,-1.1283,-1.1225,-1.1213,-1.1175,-1.1141,-1.1089,-1.1073,-1.1056,-1.1021,-1.102,-1.0981,-1.097,-1.0935,-1.0909,-1.0918,-1.0862,-1.0856,-1.0853,-1.088,-1.0881,-1.0882,-1.0888,-1.0895,0,0,0,0,0,-1.1285,-1.1255,-1.1206,-1.1177,-1.116,-1.112,-1.11,-1.1078,-1.1041,-1.1026,-1.0992,-1.0956,-1.0922,-1.09,-1.0865,-1.083,-1.0819,-1.0818,-1.0819,-1.082,-1.0818,-1.08,-1.0799,-1.0805,-1.0805,-1.0805,0,0,-1.1288,-1.1253,-1.1236,-1.1182,-1.1153,-1.1123,-1.1108,-1.1076,-1.1053,-1.1021,-1.0983,-1.0957,-1.0914,-1.0878,-1.086,-1.0856,-1.0815,-1.0819,-1.0821,-1.0817,-1.0799,-1.0799,-1.0798,-1.0804,-1.0804,-1.0804,0,0,-1.1279,-1.1249,-1.1222,-1.1195,-1.1152,-1.1126,-1.112,-1.1072,-1.1054,-1.1016,-1.0992,-1.0965,-1.0906,-1.0878,-1.0855,-1.084,-1.0823,-1.083,-1.0835,-1.0818,-1.0818,-1.0817,-1.0813,-1.0812,-1.0828,-1.0828,-1.0828,0,-1.1288,-1.1242,-1.1211,-1.1181,-1.1158,-1.113,-1.1104,-1.1078,-1.1026,-1.1011,-1.1007,-1.0936,-1.0905,-1.0863,-1.086,-1.0842,-1.0835,-1.0835,-1.082,-1.082,-1.0819,-1.0814,-1.0813,-1.083,-1.0829,-1.0829,-1.0829,0,-1.1256,-1.1225,-1.1208,-1.1161,-1.1137,-1.1109,-1.1074,-1.1053,-1.1035,-1.101,-1.0973,-1.0936,-1.0895,-1.0883,-1.0864,-1.0839,-1.0838,-1.0828,-1.0821,-1.082,-1.0815,-1.0813,-1.0831,-1.0831,-1.083,-1.083,0,0,-1.1259,-1.1198,-1.1192,-1.1172,-1.1125,-1.11,-1.1072,-1.1033,-1.1017,-1.0983,-1.0959,-1.0913,-1.0904,-1.0879,-1.0857,-1.0842,-1.0835,-1.0834,-1.0833,-1.0837,-1.0808,-1.0816,-1.0814,-1.0824,-1.0824,-1.0823,-1.0812,0,-1.1244,-1.1192,-1.1165,-1.1125,-1.1097,-1.1072,-1.1048,-1.1017,-1.0994,-1.0966,-1.094,-1.0908,-1.0899,-1.0884,-1.0868,-1.0839,-1.0829,-1.084,-1.0802,-1.0801,-1.0813,-1.0812,-1.0819,-1.081,-1.081,-1.0809,-1.0809,0,-1.1218,-1.1187,-1.1145,-1.1104,-1.1091,-1.107,-1.1034,-1.1009,-1.0974,-1.0958,-1.0933,-1.0912,-1.0883,-1.0879,-1.0839,-1.0847,-1.083,-1.0814,-1.0813,-1.0808,-1.0804,-1.0807,-1.0806,-1.0805,-1.0805,-1.0806,-1.0806,0,-1.1226,-1.1173,-1.1142,-1.1125,-1.1077,-1.1063,-1.1042,-1.1007,-1.0987,-1.0956,-1.0943,-1.0909,-1.089,-1.0864,-1.0835,-1.0835,-1.0798,-1.0792,-1.0785,-1.0786,-1.0777,-1.0778,-1.0774,-1.0767,-1.0767,-1.0767,-1.0767,0,-1.1211,-1.1186,-1.1145,-1.1126,-1.1099,-1.1069,-1.1043,-1.102,-1.099,-1.0967,-1.0943,-1.0922,-1.0885,-1.0859,-1.0837,-1.0808,-1.0799,-1.0786,-1.078,-1.0788,-1.079,-1.0776,-1.0776,-1.0766,-1.0766,-1.0766,-1.0767,0,-1.1214,-1.1185,-1.115,-1.1109,-1.1098,-1.108,-1.1044,-1.1025,-1.1002,-1.0973,-1.0965,-1.0928,-1.0897,-1.0867,-1.0824,-1.0809,-1.0781,-1.0773,-1.0793,-1.079,-1.0785,-1.0786,-1.0772,-1.0769,-1.0764,-1.0764,-1.0764,0,-1.1206,-1.1187,-1.1145,-1.1129,-1.1109,-1.1082,-1.1062,-1.1033,-1.1013,-1.0975,-1.0961,-1.0929,-1.0901,-1.0853,-1.0823,-1.0791,-1.0782,-1.078,-1.0777,-1.0787,-1.0784,-1.0785,-1.0784,-1.078,-1.0781,-1.0781,-1.0781,0,-1.1196,-1.1184,-1.1157,-1.1126,-1.1104,-1.1077,-1.105,-1.1038,-1.1004,-1.0983,-1.0952,-1.0931,-1.089,-1.0859,-1.0825,-1.0803,-1.0787,-1.0783,-1.0779,-1.0787,-1.08,-1.0794,-1.0796,-1.0782,-1.0782,-1.0782,-1.0782,-1.0782,-1.1194,-1.1177,-1.1146,-1.1117,-1.1095,-1.1071,-1.1052,-1.1028,-1.1002,-1.0967,-1.0952,-1.0921,-1.089,-1.0842,-1.0822,-1.0798,-1.0794,-1.0789,-1.0788,-1.0787,-1.079,-1.0804,-1.0792,-1.0792,-1.0792,-1.0791,-1.0791,0,-1.1183,-1.1163,-1.1137,-1.1102,-1.108,-1.1068,-1.1039,-1.1021,-1.0995,-1.0968,-1.0943,-1.0909,-1.088,-1.0849,-1.0818,-1.0805,-1.0797,-1.0798,-1.0799,-1.0794,-1.0794,-1.0801,-1.0805,-1.0805,-1.0805,-1.0805,-1.0805,-1.0805,-1.1175,-1.1147,-1.1132,-1.1093,-1.1073,-1.1044,-1.1028,-1.1007,-1.0986,-1.0949,-1.0926,-1.0906,-1.0878,-1.0846,-1.082,-1.0811,-1.0801,-1.0805,-1.0795,-1.0795,-1.0794,-1.0793,-1.0799,-1.0803,-1.0803,-1.0797,-1.0797,-1.0797]},{"header":{"parameterUnit":"m.s-1","parameterCategory":1,"la1":30.2991,"la2":30.254,"lo1":-89.0895,"lo2":-89.0444,"dy":0.0017,"dx":0.0017,"nx":28,"ny":28,"refTime":"2025-09-12T21:00:00:Z","depth":0,"parameterNumber":3,"parameterNumberName":"V-component_of_WINDS"},"data":[0,0,0,0,0,0,0,0,0,0,0,0,0,0,0,0,0,0,0,0,0,0,0,0,0,0,0,0,0,0,0,0,0,0,0,0,0,0,0,0,0,0,0,0,0,0,0,0,0,0,0,0,0,0,0,0,0,0,2.2168,2.2168,0,2.2148,2.2148,2.2147,2.2129,2.2128,2.2128,2.2128,2.2105,2.2105,2.2105,0,0,0,0,0,0,0,0,0,0,0,0,0,2.2186,2.2186,2.2168,2.2167,2.2167,2.2148,2.2148,2.2147,2.2129,2.2128,2.2128,2.2128,2.2105,2.2105,2.2105,0,0,0,0,0,0,0,0,0,0,0,0,0,2.2173,2.2186,2.2168,2.2156,2.2154,2.2148,2.2148,2.2147,2.2129,2.2128,2.2128,2.2128,2.2106,2.2105,2.2104,2.2108,0,0,2.2103,2.2102,0,0,0,0,0,0,0,0,2.2174,2.2173,2.2158,2.2156,2.2155,2.214,2.2146,2.2134,2.2129,2.2138,2.2128,2.2128,2.2117,2.2116,2.2113,2.2107,2.2106,2.2103,2.2102,2.2102,2.2102,0,0,0,0,0,0,0,2.2175,2.2173,2.216,2.2157,2.2156,2.215,2.2148,2.2143,2.213,2.2138,2.2136,2.2134,2.2116,2.2113,2.2112,2.2105,2.2103,2.2102,2.2102,2.2102,2.2098,2.2098,0,0,0,0,0,0,2.2178,2.2174,2.216,2.2159,2.2164,2.215,2.2148,2.2145,2.213,2.2127,2.2134,2.2133,2.2114,2.2113,2.2111,2.2112,2.2102,2.2102,2.2101,2.2098,2.2098,2.2099,0,0,0,0,0,0,2.2179,2.2177,2.2161,2.2166,2.2164,2.215,2.2148,2.2145,2.2142,2.2128,2.2125,2.2134,2.2114,2.2112,2.2108,2.2111,2.2101,2.2101,2.2098,2.2098,2.2098,2.2115,0,0,0,0,0,0,2.2179,2.2177,2.2179,2.2167,2.2164,2.216,2.2148,2.2145,2.2141,2.214,2.2126,2.2124,2.2114,2.2109,2.2108,2.211,2.21,2.2097,2.2098,2.2098,2.2115,2.2116,2.2118,0,0,0,0,0,2.218,2.2185,2.218,2.2178,2.2166,2.216,2.2159,2.2147,2.2142,2.2143,2.2133,2.2124,2.2111,2.2109,2.2107,2.2109,2.2097,2.2098,2.2098,2.2114,2.2116,2.2118,0,0,0,0,0,0,2.2198,2.2183,2.2177,2.2179,2.2171,2.2157,2.2159,2.215,2.2144,2.2142,2.2128,2.2125,2.2122,2.2116,2.2114,2.211,2.2103,2.2103,2.2115,2.2117,2.2119,2.212,2.21,0,0,0,0,0,2.2203,2.22,2.2187,2.2189,2.2186,2.2173,2.217,2.2162,2.2153,2.2149,2.214,2.2131,2.2124,2.212,2.2114,2.2113,2.2109,2.2114,2.2115,2.2117,2.2117,2.2114,2.2116,2.21,2.21,2.21,0,0,2.2212,2.2203,2.2202,2.2193,2.2186,2.2182,2.217,2.2167,2.2164,2.2149,2.2145,2.2137,2.2125,2.2123,2.2121,2.2117,2.212,2.2118,2.2119,2.2118,2.2115,2.2116,2.2118,2.2101,2.2101,2.2101,0,0,2.2225,2.2219,2.222,2.2213,2.2203,2.2194,2.2194,2.2181,2.2175,2.2171,2.2159,2.2154,2.2144,2.2136,2.213,2.2139,2.213,2.2137,2.2146,2.2143,2.2144,2.2145,2.2147,2.2148,2.2137,2.2137,2.2137,0,2.2238,2.2233,2.2221,2.2218,2.2214,2.22,2.2199,2.2193,2.2181,2.2177,2.2172,2.2158,2.215,2.2144,2.2146,2.2142,2.214,2.2139,2.2145,2.2146,2.2147,2.2148,2.2149,2.2138,2.2138,2.2138,2.2138,0,2.2247,2.2243,2.2245,2.2234,2.2229,2.2227,2.2214,2.2211,2.2202,2.2193,2.2188,2.2177,2.2167,2.2165,2.2157,2.2158,2.2155,2.2148,2.214,2.2149,2.215,2.2151,2.214,2.2139,2.2139,2.2139,0,0,2.2273,2.2254,2.2255,2.2249,2.2235,2.2232,2.2228,2.2219,2.2216,2.2207,2.2203,2.2194,2.2187,2.218,2.2171,2.2169,2.2174,2.2162,2.2161,2.2163,2.2172,2.2177,2.2178,2.2168,2.2168,2.2168,2.2172,0,2.2283,2.2278,2.2267,2.2264,2.226,2.2245,2.2242,2.2233,2.2224,2.2218,2.2207,2.2201,2.2193,2.2188,2.2185,2.2174,2.2175,2.2174,2.2162,2.2162,2.2165,2.2178,2.2184,2.2189,2.2173,2.2173,2.2173,0,2.2296,2.2288,2.2285,2.2271,2.2268,2.2266,2.2255,2.225,2.2238,2.2232,2.2224,2.2214,2.2207,2.22,2.2191,2.219,2.2184,2.2177,2.2177,2.2175,2.2168,2.2176,2.219,2.2191,2.2173,2.2173,2.2173,0,2.2313,2.2302,2.2298,2.2294,2.2277,2.2275,2.2268,2.2256,2.2251,2.2241,2.2237,2.2226,2.2221,2.2212,2.2198,2.2194,2.2189,2.2181,2.2182,2.2183,2.2182,2.2182,2.2194,2.2179,2.2179,2.2179,2.2179,0,2.2325,2.2324,2.2306,2.2303,2.2301,2.2287,2.2284,2.2275,2.2264,2.2259,2.2246,2.224,2.2223,2.2215,2.2204,2.2197,2.2194,2.2188,2.2185,2.2189,2.2189,2.2185,2.2184,2.2179,2.2179,2.2179,2.2179,0,2.2344,2.2332,2.2327,2.2312,2.2307,2.2306,2.2292,2.2288,2.2278,2.2271,2.2268,2.2252,2.2242,2.2228,2.2213,2.2206,2.2199,2.2195,2.2204,2.2202,2.2203,2.2203,2.2213,2.2213,2.2198,2.2199,2.2199,0,2.2353,2.2351,2.2335,2.2331,2.2324,2.2318,2.2312,2.2298,2.2292,2.2277,2.2275,2.2264,2.2255,2.2239,2.2225,2.2213,2.2208,2.2212,2.2206,2.2209,2.2206,2.2207,2.2206,2.2213,2.2214,2.2214,2.2214,0,2.2369,2.2362,2.2355,2.2345,2.2339,2.233,2.2321,2.2318,2.2301,2.2295,2.2285,2.2278,2.2263,2.2251,2.2237,2.2228,2.2218,2.2216,2.2215,2.2219,2.2224,2.222,2.2207,2.2216,2.2216,2.2215,2.2215,2.2215,2.2382,2.2379,2.2367,2.2359,2.235,2.2342,2.2337,2.2326,2.2318,2.2305,2.2297,2.2287,2.2273,2.2253,2.2244,2.2235,2.2231,2.223,2.223,2.223,2.2231,2.2226,2.2232,2.2232,2.2232,2.2232,2.2232,0,2.2396,2.2387,2.238,2.2367,2.236,2.2352,2.2341,2.2335,2.2327,2.2315,2.2306,2.2293,2.2282,2.2267,2.2254,2.2249,2.2244,2.2246,2.2246,2.2244,2.2236,2.2237,2.225,2.225,2.225,2.225,2.225,2.225,2.2402,2.2397,2.2389,2.2379,2.237,2.236,2.2354,2.2346,2.2336,2.2323,2.2314,2.2304,2.2291,2.2276,2.2265,2.226,2.2255,2.2259,2.2253,2.2246,2.2244,2.2243,2.2244,2.2258,2.2258,2.2261,2.2262,2.2262]}]]